COSMOS 2251 DEB

Satellite information

Favourite Embed

Satellite Type and Status

DEBRISIN ORBIT

Key statistics

Satellite COSMOS 2251 DEB at a glance.

Uptime

11869

Days in orbit

Revolutions

≈ 14.4

Per day

Orbit

LEO

Low Earth Orbit

Inclination

74.0

Latest

Satellite identification and parameters

Extended collection of information and parameters for COSMOS 2251 DEB.

Object identification

Identified? True

Debris? True

Object name: COSMOS 2251 DEB

International designator: 1993-036HJ

Object number (NORAD): 34023

Object ID (CCSDS): 34023

Country: COMMONWEALTH OF INDEPENDENT STATES (CIS)

Current information (Y/N): Y

RCS size: SMALL

Orbital parameters

Period: 99.961 minutes

Inclination: 74.0249 deg

SMA: 7134.771 km

Apoapsis: 769.835 km

Periapsis: 743.436 km

RAAN: 250.285 deg

Eccentricy: 0.00185006

Argument of periapsis: 345.8047 deg

Mean anomaly: 193.0338 deg

Mean motion: 14.40564621 rev/day

Mean motion (dot): 0.00001651 rev/day2

B* drag term: 0.00052537619 1/REarth

Two-line elements (TLE)

Creation date: Dec. 14, 2025, 3:07 a.m.

Reference frame: TEME

Reference center: EARTH

Epoch: Dec. 13, 2025, 12:39 p.m. UTC

TLE line 0: 0 COSMOS 2251 DEB

TLE line 1: 1 34023U 93036HJ 25347.52768111 .00001651 00000-0 52538-3 0 9994

TLE line 2: 2 34023 74.0249 250.2850 0018501 345.8047 193.0338 14.40564621882253

Live tracking on map

Real-time ground track for satellite COSMOS 2251 DEB.

In-orbit conjunctions

A list of the most updated potential collisions computed for object COSMOS 2251 DEB.

Target Orbit TCA Probability of collision Miss distance Type
FENGYUN 1C DEB SSO 2025-11-24 17:26:29 0.0001120042 247.0 (m) DEBRIS
COSMOS 468 DEB LEO 2024-11-12 10:20:47 0.0004364245 902.0 (m) DEBRIS
PSLV R/B LEO 2024-07-28 05:53:47 0.0001799246 218.0 (m) ROCKET BODY

Associated space launch

Military communications satellite. Destroyed in a collision with Iridium 33.

COSMOS 2251 DEB was lifted into orbit during the mission ‘Kosmos-3M | Strela-2M 51’, on board a Kosmos-3M space rocket.

The launch took place on June 16, 1993, 4:17 a.m. from 132/1 (132L).

For more information about the launch, click the button.

Launch to space Kosmos-3M | Strela-2M 51
Kosmos-3M | Strela-2M 51

Agency: N/A

Status: Launch Successful

Launch date: June 16, 1993, 4:17 a.m. UTC

Rocket: Kosmos-3M

Launch pad: 132/1 (132L)

Location: Plesetsk Cosmodrome, Russian Federation

...

Latest news about this satellite

There are no fresh news available about this satellite. Check back as we update our databases every day.


Newsletter sign-up

Weekly statistics, charts and insights to help you stay on top of the space industry.